Погода в Касумкенте

Россия / Республика Дагестан     41°40′38″N   48°09′08″E
темп.,
°C
ветер,
м/с
пор.,
м/с
влажн.,
%
обл.,
%
осадки,
мм/ч
давл.,
гПа
погр.,
м
1 декабря, ср
ср100:00+11ююв226056 0.0 100014
03:00+14зюз3340100 0.0 99618
06:00+17юз562921 0.0 99538
09:00+12св57645 0.0 999231
12:00+14с24483 0.0 1002824
15:00+11всв335817 0.0 1007425
18:00+9ссв2482100 1.2 1009440
21:00+6с7986100 3.4 1010852
2 декабря, чт
чт200:00+5сз467198 3.9 1013638
03:00+5юз227067 4.0 101342
06:00+5з226863 0.0 101430
09:00+5св227075 0.0 1017290
12:00+7ююз1162100 0.0 1018542
15:00+9всв325019 0.0 1019454
18:00+4ююв11865 0.0 102310
21:00+4юз11720 0.0 102418
3 декабря, пт
пт300:00+3ююз22590 0.0 102421
03:00+2ююз22540 0.0 102418
06:00+2юз22520 0.0 102416
09:00+6сз12380 0.0 1024123
12:00+9ссв11340 0.0 1021298
15:00+9ссв11420 0.0 1020129
18:00+6юз22550 0.0 102013
21:00+5зюз11520 0.0 102013
4 декабря, сб
сб400:00+4зюз11500 0.0 101913
03:00+4з11490 0.0 101911
06:00+4зсз11510 0.0 101911
09:00+8ссз01429 0.0 101953
12:00+10в224231 0.0 1018372
15:00+10св21490 0.0 1017160
18:00+6ююз11640 0.0 101710
21:00+5ю11620 0.0 101711
5 декабря, вс
вс500:00+5ююз115665 0.0 101512
03:00+4юз114883 0.0 101212
06:00+4сз115019 0.0 101011
09:00+8сз114399 0.0 100951
12:00+10в214162 0.0 1007191
15:00+9ссв115463 0.0 1007193
18:00+7сз226620 0.0 100817
21:00+6сз4780100 0.0 1010160